Change the Weather History Date:

Friday, June 21, 2013

  Actual Average Record
Temperature  
Mean Temperature 76 °F -  
Max Temperature 83 °F 81 °F 87 °F (2007)
Min Temperature 69 °F 67 °F 57 °F (2000)
Cooling Degree Days 11    
Growing Degree Days 26 (Base 50)    
Moisture  
Dew Point 58 °F    
Average Humidity 54    
Maximum Humidity 73    
Minimum Humidity 30    
Precipitation  
Precipitation 0.00 in - - ()
Sea Level Pressure  
Sea Level Pressure 30.02 in    
Wind  
Wind Speed 11 mph ()    
Max Wind Speed 20 mph    
Max Gust Speed 30 mph    
Visibility 6.2 miles    
Events      
Averages and records for this station are not official NWS values.
T = Trace of Precipitation, MM = Missing Value Source: Averaged Metar Reports

Daily Weather History Graph

Daily Weather History Graph

Search for Another Location

Airport or City:

Trip Planner

Search our weather history database for the weather conditions in past years. The results will help you decide how hot, cold, wet, or windy it might be!

Date:

Astronomy

Jun. 21, 2013 Rise Set
Actual Time 5:32 AM EEST 8:40 PM EEST
Civil Twilight 4:59 AM EEST 9:13 PM EEST
Nautical Twilight 4:16 AM EEST 9:56 PM EEST
Astronomical Twilight 3:25 AM EEST 10:48 PM EEST
Moon 6:28 PM EEST (6/21) 3:32 AM EEST (6/21)
Length of Visible Light 16h 14m
Length of Day
15h 07m
Waxing Gibbous, 93% of the Moon is Illuminated
Jun 21
Waxing Gibbous
Jun 23
Full
Jun 30
Last Quarter
Jul 8
New
Jul 16
First Quarter

Hourly Weather History & Observations

Time (EEST) Temp. Heat Index Dew Point Humidity Pressure Visibility Wind Dir Wind Speed Gust Speed Precip Events Conditions
12:20 AM 73.4 °F - 62.6 °F 69% 30.06 in - NE 10.4 mph - N/A   Clear
12:50 AM 71.6 °F - 62.6 °F 73% 30.04 in - NE 12.7 mph - N/A   Clear
1:20 AM 71.6 °F - 62.6 °F 73% 30.04 in - NE 10.4 mph - N/A   Clear
1:50 AM 73.4 °F - 62.6 °F 69% 30.04 in - NE 10.4 mph - N/A   Clear
2:20 AM 71.6 °F - 62.6 °F 73% 30.04 in - NE 11.5 mph - N/A   Clear
2:50 AM 71.6 °F - 62.6 °F 73% 30.04 in - ENE 12.7 mph - N/A   Clear
3:00 AM 71 °F - 62 °F 67% 30.04 in 6 mi ENE 12.7 mph - -  
3:20 AM 71.6 °F - 62.6 °F 73% 30.01 in - NE 10.4 mph - N/A   Clear
3:50 AM 71.6 °F - 60.8 °F 69% 30.01 in - NE 11.5 mph - N/A   Clear
4:20 AM 69.8 °F - 60.8 °F 73% 30.01 in - NE 8.1 mph - N/A   Clear
4:50 AM 69.8 °F - 60.8 °F 73% 30.04 in - ENE 5.8 mph - N/A   Clear
5:20 AM 69.8 °F - 60.8 °F 73% 30.04 in - East 4.6 mph - N/A   Clear
5:50 AM 69.8 °F - 60.8 °F 73% 30.04 in 6.2 mi ENE 5.8 mph - N/A   Scattered Clouds
6:20 AM 69.8 °F - 60.8 °F 73% 30.04 in 6.2 mi NE 8.1 mph - N/A   Scattered Clouds
6:50 AM 71.6 °F - 60.8 °F 69% 30.04 in 6.2 mi NE 8.1 mph - N/A   Scattered Clouds
7:20 AM 73.4 °F - 60.8 °F 65% 30.04 in 6.2 mi NE 10.4 mph - N/A   Partly Cloudy
7:50 AM 73.4 °F - 59.0 °F 61% 30.04 in 6.2 mi NE 12.7 mph - N/A   Scattered Clouds
8:20 AM 75.2 °F - 59.0 °F 57% 30.04 in 6.2 mi Variable 12.7 mph 24.2 mph N/A   Scattered Clouds
8:50 AM 75.2 °F - 57.2 °F 53% 30.04 in 6.2 mi ENE 13.8 mph - N/A   Scattered Clouds
9:00 AM 75 °F - 57 °F 44% 30.05 in 6 mi ENE 13.8 mph - -   Partly Cloudy
9:20 AM 77.0 °F - 57.2 °F 50% 30.04 in 6.2 mi ENE 15.0 mph - N/A   Scattered Clouds
9:50 AM 75.2 °F - 55.4 °F 50% 30.04 in 6.2 mi NE 13.8 mph - N/A   Scattered Clouds
10:20 AM 77.0 °F - 53.6 °F 44% 30.04 in 6.2 mi ENE 12.7 mph - N/A   Scattered Clouds
10:50 AM 78.8 °F - 51.8 °F 39% 30.04 in 6.2 mi NE 16.1 mph - N/A   Scattered Clouds
11:20 AM 80.6 °F - 51.8 °F 37% 30.04 in 6.2 mi NE 15.0 mph - N/A   Scattered Clouds
11:50 AM 80.6 °F - 48.2 °F 32% 30.04 in 6.2 mi NE 16.1 mph - N/A   Scattered Clouds
12:20 PM 80.6 °F 80.3 °F 53.6 °F 39% 30.04 in 6.2 mi NE 15.0 mph - N/A   Partly Cloudy
12:50 PM 80.6 °F - 51.8 °F 37% 30.04 in 6.2 mi ENE 16.1 mph - N/A   Partly Cloudy
1:20 PM 80.6 °F - 51.8 °F 37% 30.01 in 6.2 mi NE 16.1 mph - N/A   Partly Cloudy
1:50 PM 80.6 °F - 50.0 °F 34% 30.01 in 6.2 mi NE 16.1 mph - N/A   Scattered Clouds
2:20 PM 80.6 °F 80.5 °F 55.4 °F 42% 30.01 in 6.2 mi NE 16.1 mph - N/A   Partly Cloudy
2:50 PM 82.4 °F 82.0 °F 57.2 °F 42% 30.01 in 6.2 mi NNE 16.1 mph 29.9 mph N/A   Partly Cloudy
3:00 PM 82 °F - 56 °F 30% 30.01 in 6 mi NNE 16.1 mph - -   Scattered Clouds
3:20 PM 82.4 °F 82.0 °F 57.2 °F 42% 30.01 in 6.2 mi NNE 19.6 mph - N/A   Partly Cloudy
3:50 PM 80.6 °F 80.8 °F 57.2 °F 45% 30.01 in 6.2 mi NNE 19.6 mph - N/A   Partly Cloudy
4:20 PM 80.6 °F 80.5 °F 55.4 °F 42% 30.01 in 6.2 mi NNE 18.4 mph - N/A   Partly Cloudy
4:50 PM 80.6 °F 80.3 °F 53.6 °F 39% 30.01 in 6.2 mi NE 18.4 mph - N/A   Partly Cloudy
5:20 PM 80.6 °F 80.3 °F 53.6 °F 39% 29.98 in - NE 17.3 mph - N/A   Clear
5:50 PM 80.6 °F - 51.8 °F 37% 29.98 in - NE 15.0 mph - N/A   Clear
6:20 PM 78.8 °F - 51.8 °F 39% 29.98 in - NE 18.4 mph - N/A   Clear
6:50 PM 78.8 °F - 51.8 °F 39% 29.98 in - NE 15.0 mph - N/A   Clear
7:20 PM 78.8 °F - 55.4 °F 44% 29.98 in - NE 15.0 mph - N/A   Clear
7:50 PM 77.0 °F - 53.6 °F 44% 29.98 in - ENE 13.8 mph - N/A   Clear
8:20 PM 77.0 °F - 55.4 °F 47% 29.98 in - ENE 15.0 mph - N/A   Clear
8:50 PM 77.0 °F - 57.2 °F 50% 30.01 in - NE 11.5 mph - N/A   Clear
9:00 PM 77 °F - 58 °F 41% 30.00 in 6 mi NE 11.5 mph - -  
9:20 PM 75.2 °F - 59.0 °F 57% 30.01 in - ENE 13.8 mph - N/A   Clear
9:50 PM 73.4 °F - 60.8 °F 65% 30.01 in - NE 12.7 mph - N/A   Clear
10:20 PM 73.4 °F - 62.6 °F 69% 30.01 in - NE 15.0 mph - N/A   Clear
10:50 PM 73.4 °F - 62.6 °F 69% 30.01 in - NE 11.5 mph - N/A   Clear
11:20 PM 73.4 °F - 62.6 °F 69% 30.01 in - NE 11.5 mph - N/A   Clear
11:50 PM 71.6 °F - 62.6 °F 73% 30.01 in - NE 11.5 mph - N/A   Clear